Tracking 31027 objects as of 19-Jul-2025
HD Live streaming from Space Station
objects crossing your sky now

STARLINK-30290

Track STARLINK-30290 now!
10-day predictions
STARLINK-30290 is classified as:


NORAD ID: 57858
Int'l Code: 2023-141U
Perigee: 481.7 km
Apogee: 483.1 km
Inclination: 53.2 °
Period: 94.1 minutes
Semi major axis: 6853 km
RCS: Unknown
Launch date: September 12, 2023
Source: United States (US)
Launch site: AIR FORCE WESTERN TEST RANGE (AFWTR)
Your satellite tracking list
SL-16 DEB
Track 1 satellite(s)




NASA's NSSDC Master Catalog

Two Line Element Set (TLE):
1 57858U 23141U   25199.68594067 -.00001145  00000-0 -26554-4 0  9994
2 57858  53.1600 290.8605 0001089  96.1022 264.0103 15.30184542104507
Source of the keplerian elements: AFSPC